Temperature
30 30 31 30 30 30 30 31 31 31 31 31 30 30 28 27 26 26 25 24 23 22 22 21 21 21 20 20 20 20 20 20 20 19 19 19 19 19 18 18 18 18 18 18
28 29 30 29 30 30 30 30 30 31 31 31 29 28 27 26 26 26 25 24 23 22 21 21 21 21 20 20 20 20 20 20 19 19 19 19 19 19 18 18 18 18 18 18
28 29 28 28 30 30 30 30 30 30 30 30 29 28 26 26 25 25 25 24 23 22 21 21 21 20 20 20 20 20 19 19 19 19 19 19 19 18 18 18 18 18 18 17
28 27 26 29 30 30 29 29 30 30 29 28 28 26 25 25 24 24 24 23 22 22 21 21 21 20 20 20 20 19 19 19 19 19 19 18 18 18 18 18 18 18 18 17
27 27 27 28 28 28 28 28 29 28 28 27 26 26 26 24 23 23 22 22 22 22 21 21 20 20 20 20 19 19 19 19 19 19 18 18 18 18 18 18 17 17 17 17
26 26 26 28 28 27 28 27 27 27 27 26 26 27 27 23 22 22 21 21 21 21 21 20 20 20 19 19 19 19 19 19 19 19 18 18 18 18 17 17 17 17 17 17
25 26 27 27 26 26 26 27 25 25 25 25 25 25 23 22 21 21 20 20 20 20 20 20 20 20 19 19 19 19 19 18 18 18 18 18 17 17 17 17 17 17 16 16
25 25 26 25 26 26 25 23 23 24 24 23 23 22 21 21 20 20 20 20 20 20 20 20 19 19 19 19 19 18 18 18 18 18 17 17 17 17 17 17 16 16 16 16
25 25 23 23 23 22 21 22 22 22 22 22 22 21 21 20 20 20 19 19 20 20 19 19 19 19 19 19 18 18 18 18 17 17 17 17 17 17 17 16 16 16 16 15
23 23 22 22 21 21 21 21 21 21 21 21 21 20 20 20 19 19 19 19 19 19 19 19 18 18 18 18 18 17 17 17 17 17 17 17 16 16 16 16 16 16 15 15
22 22 22 21 21 20 20 20 20 20 20 20 20 19 19 19 18 18 18 18 18 18 18 18 18 18 18 17 17 17 17 17 17 17 16 16 16 16 16 16 16 15 15 15
22 21 22 21 20 20 19 20 19 19 19 19 19 19 18 18 18 18 18 17 17 17 18 17 17 17 17 17 17 16 17 16 17 17 16 16 16 16 16 15 15 15 15 15
20 20 20 19 19 19 19 19 19 19 18 18 18 18 18 17 17 17 17 17 17 17 17 17 17 17 17 16 16 16 16 16 16 16 16 16 16 15 15 15 15 15 15 15
18 18 18 18 18 18 18 18 18 18 18 18 17 17 17 17 17 17 16 16 16 16 16 16 16 16 16 16 16 16 16 16 16 15 15 15 15 15 15 15 15 15 15 14
17 17 18 17 17 17 17 17 17 17 17 17 17 17 17 17 16 16 16 16 16 16 16 16 16 16 16 15 15 15 15 15 15 15 15 15 15 15 15 15 15 15 14 14
17 17 17 17 17 17 17 17 17 17 17 17 17 16 16 16 16 15 15 15 15 15 15 15 15 15 15 15 15 15 15 15 14 14 14 15 15 15 15 14 14 14 14 14
17 17 17 17 17 17 17 17 17 17 16 16 16 16 16 15 15 15 15 15 15 15 15 14 14 15 14 14 14 14 14 14 14 14 14 14 14 14 14 14 14 14 14 14
16 16 16 16 16 16 16 16 16 16 16 16 15 15 15 15 15 15 14 14 14 14 14 14 14 14 14 14 14 14 14 14 14 14 14 14 14 14 14 14 14 14 13 13
16 16 16 15 15 15 15 15 15 15 15 15 15 14 14 14 14 14 14 14 14 14 14 14 14 13 13 13 13 13 13 13 14 14 13 13 13 14 14 14 13 13 13 13
15 15 15 15 15 14 14 14 14 14 14 14 14 14 14 14 14 14 13 13 14 14 13 13 13 13 13 13 13 13 13 13 13 13 13 13 13 13 13 13 13 13 13 13
14 14 14 14 14 14 14 14 14 14 13 13 13 13 13 13 13 13 13 13 13 13 13 13 13 13 13 13 13 13 13 13 13 13 13 13 13 13 13 13 13 12 12 12
14 14 14 14 14 13 13 13 13 13 13 13 13 13 13 13 13 13 13 13 13 13 13 13 13 13 12 12 12 12 12 12 12 12 13 13 13 12 12 12 12 12 12 11
13 13 13 13 13 13 13 13 13 13 13 13 13 13 13 13 13 13 13 13 12 12 12 12 12 12 12 12 12 12 12 12 12 12 12 12 12 12 12 12 12 11 11 11
12 12 12 12 12 12 12 13 12 12 12 12 12 12 12 13 12 12 12 12 12 12 12 12 12 12 12 11 11 12 12 12 12 12 11 11 12 11 11 11 11 11 10 10
12 12 12 12 12 12 12 12 12 12 13 13 13 12 12 12 12 12 12 12 11 11 11 11 11 11 11 11 11 11 11 11 11 11 11 11 11 11 11 10 10 10 10 10
12 12 12 12 12 12 12 13 13 13 13 13 12 12 12 12 11 11 11 11 11 11 11 11 11 11 11 11 11 11 11 11 11 10 10 10 10 10 10 10 9 9 9 9
12 12 12 12 12 12 12 12 12 12 12 12 12 12 11 11 11 11 11 11 11 10 10 10 10 10 10 10 10 10 10 10 10 10 10 10 10 9 9 9 9 9 9 9
Wind_Speed
10 7 8 11 12 13 14 13 12 10 9 6 3 4 3 4 5 5 6 7 7 7 7 7 7 7 7 7 7 7 7 7 6 6 5 5 4 4 4 4 4 4 4 4
11 11 11 12 13 14 13 13 13 12 10 5 3 3 3 4 5 5 6 6 7 7 7 7 7 7 7 7 7 7 7 6 6 5 5 5 5 4 4 4 4 4 4 4
13 11 11 16 15 15 13 11 11 12 7 3 4 3 3 4 5 5 5 5 6 7 7 7 7 7 7 7 7 7 7 6 5 5 5 5 5 5 4 4 4 4 5 5
10 10 16 9 6 9 10 10 10 9 6 5 4 3 3 3 4 4 4 5 5 6 6 6 6 7 7 7 7 7 7 6 6 5 5 4 4 4 4 4 5 5 5 5
10 14 13 8 6 8 9 9 7 8 7 5 3 3 4 2 1 2 2 3 4 5 5 6 6 6 6 6 6 6 6 6 6 6 5 5 5 5 5 5 5 5 5 5
11 14 14 8 6 4 7 10 5 5 5 4 5 7 3 2 1 1 1 2 3 4 5 5 5 5 6 6 6 6 6 6 5 5 6 6 6 5 5 5 5 5 5 5
14 13 10 3 5 6 10 4 3 3 4 4 4 3 1 1 0 1 2 2 3 3 4 4 5 5 5 5 5 5 4 4 5 5 6 5 5 5 5 5 5 5 5 6
13 14 10 4 5 5 0 2 1 2 2 2 2 1 1 1 1 1 2 2 3 3 3 3 4 5 5 5 4 3 3 4 4 5 5 5 5 5 5 5 6 6 6 6
7 5 2 1 1 1 0 1 1 1 1 2 3 2 1 1 0 1 1 1 2 2 3 3 4 4 5 4 3 3 3 4 4 5 5 6 6 6 6 6 6 6 6 6
5 5 3 2 2 1 1 1 1 1 1 2 3 2 1 1 0 1 0 0 1 2 2 2 3 3 3 3 4 4 5 4 5 6 6 6 6 6 6 6 6 6 7 7
8 5 4 4 2 1 1 1 1 1 1 1 2 1 1 0 0 1 1 0 1 1 2 2 2 3 3 3 4 5 5 5 6 6 5 6 6 5 6 5 6 7 7 7
7 5 5 4 3 2 2 2 1 1 1 1 1 1 1 1 1 1 1 1 2 2 2 2 2 3 3 3 4 5 5 5 5 5 4 5 5 5 5 6 5 6 7 8
5 5 4 4 4 3 3 2 2 2 2 2 2 1 1 1 1 2 3 3 3 3 3 3 3 3 3 4 4 5 5 5 5 5 5 5 5 6 6 5 7 8 8 8
5 4 5 5 5 4 3 2 2 2 2 2 2 2 2 2 2 3 4 4 4 3 4 4 4 4 4 4 5 6 6 5 6 6 6 6 6 6 6 7 6 6 7 9
6 6 6 5 5 4 4 3 3 3 2 2 3 3 3 3 4 4 4 4 4 4 4 4 4 5 4 4 5 6 6 6 6 6 6 7 7 7 7 7 7 6 5 4
6 5 6 6 6 5 5 5 4 4 4 4 4 4 4 4 4 5 5 5 5 5 4 5 5 5 5 5 5 6 6 6 7 7 7 7 7 7 7 7 7 7 6 5
7 7 6 6 6 5 5 5 4 4 4 4 5 5 5 5 5 5 5 5 5 5 5 5 6 5 5 6 7 6 6 6 7 8 8 7 7 8 8 8 8 7 7 5
6 6 6 6 5 4 4 3 4 4 4 3 4 4 5 5 6 6 6 6 6 6 6 6 6 5 6 6 6 7 7 7 7 7 7 7 7 8 8 8 8 8 7 5
4 4 4 4 4 3 3 3 3 3 3 3 4 4 5 6 6 6 6 7 7 7 7 6 5 7 7 7 6 6 7 8 7 7 7 8 9 9 8 8 8 8 7 6
2 3 3 2 2 2 3 3 3 3 3 3 4 5 5 6 6 7 7 8 7 7 6 5 6 7 7 7 7 7 7 8 8 8 8 9 9 8 8 8 8 8 7 7
1 1 1 1 1 1 1 2 2 3 3 4 4 5 6 7 7 7 7 7 6 5 6 6 7 7 6 5 7 8 8 8 8 8 9 9 9 8 8 8 8 7 7 7
0 0 0 0 0 1 1 2 2 3 4 4 5 6 7 7 7 7 8 7 5 4 6 7 7 4 5 7 8 8 9 9 8 8 8 8 8 8 8 8 8 7 7 6
1 1 1 1 0 1 2 2 3 4 4 5 5 6 7 7 7 7 6 5 5 4 6 6 4 3 5 8 8 9 9 9 8 8 8 8 8 8 8 8 7 7 6 6
1 1 1 1 1 2 2 3 3 4 4 5 5 6 6 6 5 5 5 3 4 5 6 4 3 5 8 7 8 8 8 7 7 7 7 8 7 7 7 7 6 6 6 6
1 1 1 2 2 2 3 3 4 4 5 4 5 5 5 4 5 5 5 5 4 4 6 5 5 7 7 7 7 7 6 6 6 7 7 7 7 6 6 6 5 5 5 5
1 1 1 2 3 3 3 3 4 4 4 4 4 4 4 3 4 4 4 5 5 5 6 5 5 5 6 6 6 6 6 5 5 5 6 6 5 5 4 4 5 4 5 5
1 1 2 2 2 3 3 3 4 4 4 4 4 4 4 4 4 4 5 5 5 5 5 5 5 4 5 5 5 5 4 4 4 4 4 4 3 3 3 3 4 4 4 4
Wind_Direction
244 236 224 223 220 220 230 244 254 255 250 238 232 223 210 189 183 182 176 178 178 179 179 179 181 182 183 186 186 184 184 190 192 198 202 206 208 216 225 237 241 239 239 240
228 226 229 234 232 228 232 242 249 254 253 246 237 217 206 198 194 194 189 186 185 184 183 184 185 184 182 185 186 186 190 194 194 196 199 203 206 212 222 235 245 244 240 239
229 219 230 235 230 230 232 236 246 251 250 224 224 224 222 220 214 206 198 193 188 188 189 189 187 183 184 185 184 184 189 196 197 202 208 210 212 210 221 231 238 242 242 241
233 221 233 234 213 228 235 242 247 251 243 233 240 236 226 217 215 213 205 200 192 191 187 186 182 180 185 180 186 192 196 200 202 206 211 212 213 218 224 231 235 239 242 242
229 231 235 224 208 214 227 237 238 236 231 226 214 208 196 169 168 184 186 192 185 184 180 175 175 175 175 180 184 191 200 206 208 213 219 219 218 222 226 233 239 242 241 243
230 237 238 226 184 205 229 232 210 217 223 219 213 236 197 97 105 170 160 166 170 171 170 166 169 171 178 186 190 200 208 211 212 217 224 228 230 230 231 233 239 247 247 249
229 237 240 175 156 186 223 233 158 205 217 220 220 275 62 91 118 157 150 153 159 166 174 174 175 177 189 197 205 213 215 215 216 221 226 228 231 234 238 240 244 248 250 251
225 234 232 133 179 211 261 63 150 208 219 208 189 166 126 105 122 150 148 157 161 166 171 175 178 184 198 210 217 216 221 222 225 230 235 229 228 234 236 242 244 244 248 255
227 230 80 146 183 84 109 196 197 214 208 192 191 187 153 114 110 143 157 168 182 175 175 183 188 197 210 218 220 219 224 232 240 242 242 242 236 236 237 237 248 253 254 258
228 219 205 189 178 172 207 221 240 207 210 204 196 173 147 126 68 53 66 153 195 189 199 204 209 217 224 223 222 223 226 233 236 237 242 242 244 243 244 245 252 257 260 263
227 225 212 198 192 207 209 203 203 180 201 198 187 185 170 167 3 13 26 353 242 227 234 236 233 230 232 231 228 234 237 240 244 243 243 244 244 252 250 250 252 256 260 263
230 215 232 222 218 225 224 215 201 201 220 244 220 223 237 268 313 315 319 301 277 269 268 263 254 252 246 238 235 243 247 248 251 252 249 251 252 257 238 243 234 236 253 269
247 245 256 243 244 245 225 211 227 237 242 264 269 252 244 261 287 300 290 282 278 276 277 274 266 265 267 255 244 247 253 256 260 261 255 254 257 263 269 252 227 231 239 247
223 227 233 231 234 231 216 210 223 230 235 248 256 250 248 259 273 274 277 284 287 282 281 278 272 269 269 263 253 252 257 249 251 257 260 259 258 259 261 267 268 260 236 224
229 238 234 234 230 228 224 215 216 227 231 244 251 250 252 255 264 271 274 276 275 272 273 275 277 279 274 267 264 262 263 263 260 263 262 261 260 259 260 261 264 266 266 239
231 227 220 220 224 229 229 228 233 240 244 249 252 247 247 249 262 271 270 269 268 272 275 274 273 276 272 269 268 264 258 258 262 264 263 262 261 262 262 261 261 262 261 262
223 223 220 222 227 232 236 240 242 248 254 256 253 251 246 247 257 265 268 271 273 276 275 271 270 271 270 266 268 271 270 259 239 258 263 263 263 263 265 264 264 264 264 256
226 228 225 222 224 234 248 251 252 258 264 263 260 250 249 254 263 266 264 263 262 265 266 264 264 264 267 268 271 277 274 271 266 264 265 264 263 263 263 265 266 269 271 257
226 220 215 215 222 231 246 255 258 263 265 258 253 257 261 264 266 266 267 266 264 264 265 262 255 258 264 269 271 263 269 272 271 268 267 264 262 263 264 266 268 269 270 268
169 176 179 198 221 228 246 260 267 268 266 263 264 266 269 276 275 271 270 269 269 274 271 268 260 263 265 265 264 267 269 271 272 271 269 268 267 265 265 266 268 270 270 268
129 141 147 159 185 235 259 272 271 271 274 270 267 269 272 274 273 270 270 274 274 274 272 260 259 264 266 271 258 267 267 268 270 271 270 268 268 267 268 268 269 270 269 269
190 224 177 174 354 320 301 292 285 280 279 277 276 275 274 271 271 270 269 276 279 278 274 272 269 277 282 279 271 269 265 264 266 268 269 267 266 267 270 272 271 271 271 270
248 253 243 231 251 287 290 292 292 292 292 291 289 287 286 284 283 280 281 279 279 284 281 281 290 280 272 271 270 267 264 262 263 266 269 269 269 270 271 273 274 275 274 273
257 249 251 262 271 267 273 288 298 297 293 288 291 297 294 289 287 285 287 278 277 289 288 292 280 267 264 267 270 269 267 266 267 269 271 271 272 274 275 276 277 277 275 274
293 272 267 266 265 271 276 283 288 286 286 295 302 298 289 291 293 301 303 303 307 295 294 283 252 253 262 271 271 271 270 269 272 279 279 279 278 276 276 278 278 278 279 280
263 270 286 285 296 291 286 286 290 300 304 306 308 311 307 301 297 293 291 293 294 296 297 298 290 271 272 275 276 275 273 271 272 275 284 291 286 278 277 282 284 283 283 281
247 264 265 274 279 284 288 291 297 303 308 313 317 318 315 312 312 313 310 304 302 300 303 304 299 293 291 289 285 281 280 282 286 294 296 294 294 292 291 287 288 288 289 288
Height
1478 1476 1477 1480 1483 1485 1487 1485 1488 1485 1484 1483 1486 1490 1493 1495 1498 1499 1502 1503 1505 1506 1508 1509 1511 1513 1514 1516 1517 1518 1519 1520 1521 1522 1523 1523 1523 1524 1524 1524 1524 1523 1523 1522
1484 1479 1479 1482 1480 1481 1483 1482 1483 1482 1483 1482 1486 1490 1493 1495 1496 1497 1499 1501 1503 1504 1506 1507 1508 1510 1512 1513 1514 1516 1517 1518 1519 1520 1520 1520 1521 1521 1521 1521 1521 1521 1520 1520
1484 1480 1483 1486 1478 1478 1479 1478 1480 1482 1481 1483 1486 1489 1492 1494 1495 1496 1498 1500 1501 1502 1504 1505 1506 1508 1509 1511 1512 1513 1514 1516 1516 1517 1518 1518 1518 1518 1518 1518 1518 1518 1518 1517
1482 1487 1499 1476 1471 1473 1476 1477 1477 1478 1480 1484 1487 1489 1491 1493 1494 1495 1496 1498 1499 1500 1502 1503 1505 1506 1507 1508 1510 1511 1512 1513 1514 1515 1515 1515 1515 1515 1515 1515 1515 1515 1515 1514
1484 1487 1482 1475 1474 1475 1477 1479 1478 1479 1481 1484 1487 1488 1489 1491 1493 1494 1495 1496 1497 1498 1500 1501 1502 1504 1505 1506 1508 1509 1509 1510 1511 1511 1512 1512 1512 1512 1512 1512 1512 1512 1512 1511
1484 1488 1486 1473 1471 1476 1478 1481 1479 1481 1482 1484 1486 1484 1485 1491 1492 1493 1494 1494 1495 1496 1498 1499 1499 1501 1503 1504 1505 1506 1507 1507 1508 1508 1508 1509 1509 1509 1509 1508 1508 1508 1508 1507
1482 1483 1473 1469 1473 1477 1484 1480 1480 1482 1483 1485 1485 1486 1489 1490 1491 1491 1492 1492 1493 1494 1496 1497 1498 1499 1500 1501 1502 1503 1504 1504 1505 1505 1505 1505 1505 1505 1505 1505 1505 1504 1504 1503
1479 1482 1478 1473 1474 1475 1478 1481 1481 1482 1484 1485 1486 1488 1488 1489 1489 1490 1490 1490 1491 1492 1494 1495 1495 1496 1497 1498 1499 1500 1501 1502 1502 1502 1503 1502 1502 1501 1501 1501 1501 1500 1500 1499
1472 1475 1476 1476 1477 1480 1481 1481 1482 1483 1484 1485 1486 1487 1488 1488 1488 1488 1488 1489 1490 1491 1492 1493 1493 1494 1495 1496 1496 1497 1498 1498 1498 1498 1499 1499 1498 1497 1497 1497 1497 1497 1496 1495
1474 1473 1475 1477 1478 1480 1481 1482 1482 1483 1484 1485 1485 1486 1486 1487 1488 1488 1487 1488 1488 1489 1490 1491 1491 1492 1492 1493 1493 1494 1494 1495 1494 1494 1495 1495 1494 1494 1493 1492 1492 1492 1491 1491
1473 1474 1475 1476 1478 1479 1480 1481 1482 1483 1484 1484 1485 1485 1485 1486 1487 1487 1487 1487 1487 1488 1488 1488 1489 1489 1489 1490 1490 1490 1491 1491 1491 1491 1491 1490 1490 1489 1488 1487 1488 1487 1487 1486
1468 1472 1473 1475 1477 1479 1480 1480 1481 1482 1482 1484 1484 1485 1485 1485 1486 1486 1486 1486 1486 1486 1486 1486 1486 1486 1486 1486 1487 1487 1487 1487 1488 1487 1487 1486 1485 1484 1483 1483 1482 1482 1481 1481
1471 1472 1473 1475 1476 1478 1478 1479 1480 1481 1481 1482 1483 1483 1483 1484 1483 1484 1484 1484 1484 1484 1484 1484 1484 1484 1484 1484 1484 1484 1484 1484 1484 1483 1482 1481 1480 1480 1479 1479 1478 1477 1476 1475
1470 1472 1473 1474 1475 1476 1477 1478 1479 1479 1480 1481 1481 1482 1482 1482 1482 1481 1482 1482 1481 1481 1481 1481 1481 1481 1481 1481 1480 1480 1480 1480 1479 1479 1478 1477 1477 1476 1475 1474 1474 1472 1472 1470
1469 1470 1471 1472 1473 1474 1475 1476 1477 1477 1478 1479 1479 1480 1480 1480 1479 1479 1479 1479 1478 1478 1478 1478 1478 1477 1478 1477 1477 1477 1477 1476 1475 1475 1474 1474 1473 1472 1471 1470 1469 1469 1468 1466
1466 1467 1468 1469 1471 1472 1473 1474 1474 1475 1475 1476 1476 1477 1477 1477 1477 1476 1476 1476 1476 1475 1474 1474 1474 1474 1474 1474 1473 1473 1472 1471 1471 1471 1470 1469 1469 1468 1467 1466 1465 1464 1463 1462
1463 1464 1465 1467 1468 1469 1470 1471 1472 1472 1473 1473 1473 1473 1474 1474 1474 1473 1473 1472 1472 1471 1471 1471 1470 1470 1470 1470 1469 1469 1468 1467 1466 1466 1465 1465 1464 1463 1463 1462 1461 1460 1459 1458
1462 1462 1463 1464 1466 1467 1467 1468 1469 1469 1470 1470 1470 1470 1470 1470 1470 1470 1469 1469 1468 1467 1467 1467 1466 1466 1466 1465 1465 1465 1464 1463 1462 1461 1460 1460 1459 1458 1458 1457 1456 1455 1454 1453
1459 1460 1461 1462 1464 1464 1464 1465 1466 1466 1467 1467 1467 1467 1467 1467 1466 1466 1465 1465 1464 1463 1462 1462 1461 1461 1461 1460 1460 1459 1459 1458 1457 1456 1456 1455 1454 1453 1452 1452 1451 1450 1449 1448
1458 1459 1459 1460 1461 1461 1462 1463 1463 1463 1464 1464 1464 1464 1463 1463 1463 1462 1461 1460 1460 1459 1458 1457 1456 1456 1456 1455 1455 1454 1454 1453 1452 1451 1450 1450 1449 1448 1447 1446 1446 1445 1444 1443
1457 1457 1457 1458 1459 1459 1460 1460 1460 1461 1461 1462 1461 1461 1460 1460 1459 1458 1457 1456 1455 1454 1453 1452 1452 1451 1451 1450 1449 1449 1448 1448 1447 1446 1445 1444 1444 1443 1442 1441 1441 1440 1439 1438
1456 1456 1456 1457 1457 1457 1458 1458 1458 1458 1458 1458 1458 1458 1457 1456 1455 1454 1453 1452 1451 1449 1448 1448 1448 1447 1446 1445 1444 1444 1443 1442 1442 1441 1440 1439 1438 1437 1437 1436 1435 1434 1433 1432
1455 1455 1456 1456 1456 1456 1456 1456 1456 1456 1455 1455 1455 1454 1454 1452 1452 1450 1449 1448 1446 1445 1444 1443 1442 1441 1440 1439 1439 1438 1437 1437 1436 1436 1435 1434 1433 1432 1431 1430 1429 1428 1427 1426
1454 1454 1455 1455 1454 1454 1454 1454 1454 1454 1453 1452 1452 1451 1450 1449 1447 1446 1445 1443 1442 1440 1439 1438 1436 1435 1434 1433 1433 1432 1432 1431 1431 1430 1430 1429 1428 1427 1426 1425 1424 1423 1422 1421
1453 1453 1453 1453 1453 1453 1453 1452 1452 1451 1451 1450 1449 1448 1447 1446 1445 1443 1441 1440 1438 1436 1435 1433 1432 1430 1429 1429 1428 1428 1427 1426 1426 1425 1424 1423 1422 1421 1421 1420 1419 1418 1417 1416
1452 1452 1451 1451 1451 1451 1451 1450 1450 1449 1449 1448 1447 1445 1444 1443 1441 1440 1438 1436 1435 1433 1432 1430 1428 1427 1426 1425 1424 1424 1423 1422 1422 1421 1420 1419 1417 1416 1416 1415 1415 1414 1413 1412
1450 1450 1450 1450 1450 1450 1449 1449 1448 1447 1447 1445 1444 1443 1442 1440 1439 1437 1436 1434 1432 1431 1429 1427 1425 1424 1423 1422 1421 1420 1420 1419 1418 1417 1416 1416 1414 1413 1412 1412 1411 1410 1409 1409